星链-4180 (STARLINK-4180 )

导读

STARLINK-4180是美国SpaceX公司星链星座的卫星,于2022年7月24日发射升空,属于星链大规模组网进程中的任务星。星链计划旨在通过低轨卫星星座为全球提供高速低延迟互联网服务,该星属于星链V1.5批次,配备激光星间通信链路,可减少对地面站的依赖,提升数据传输效率,运行于近地轨道,为全球偏远地区、特殊场景提供宽带网络接入支持,是星链全球覆盖组网的组成部分。

Basic Information
目录编号:
53278
目录名称:
STARLINK-4180
国际标识:
2022-086AN
轨道中心:
EARTH
卫星名称:
星链-4180
卫星全名:
星链-4180 (STARLINK-4180 )
卫星状态:
在轨 (已飞行1424 天)
发射日期:
2022-07-24 UTC
国别 :
美国 (US)
星等 :
--
Orbit Information
数据来源 国际轨道数据 AOE轨道数据
星历时间 2026-06-17T09:09:57+0800
14小时前
查看轨道信息
2026-06-14T02:00:00+0800
3天前
查看轨道信息
半长轴 6917.894km 6917.892km
偏心率 0.0001295 0.0001479
轨道倾角 53.162° 53.161°
近地点辐角 84.834° 65.560°
升交点赤经 97.988° 112.815°
平近点角 275.280° 7.559°
近地点 538.861km 538.731km
远地点 540.653km 540.779km
周期 95.438分钟 95.438分钟
每日圈数 15.088356 15.088363
Detailed Information
固有亮度:
5
最大亮度:
2.5
卫星平台:
Starlink v1.5
覆盖范围:
全球
运营商:
太空探索技术公司
运营商所在国:
美国
制造商(研发单位):
太空探索技术公司
制造商所在国:
美国
使用方式:
暂无
Satellite Introduction
星链(Starlink)计划是由太空探索技术公司(SpaceX)提出的一个巨型低轨卫星互联网星座项目,计划在2019年至2024年间在太空搭建由约1.2万颗卫星组成的“星链”网络,其中1584颗将部署在地球上空550千米处的近地轨道,并从2020年开始工作。该卫星仍在工作。
2D Orbit Map
3D Orbit Map
Orbit Altitude Analysis Chart
Orbit Inclination Analysis Chart
Orbit Comprehensive Analysis Chart
View Comprehensive Chart